2017-030C

Last updated on Mon Jun 05 2017 00:15:04 GMT+0000 (Coordinated Universal Time)

1 42746U 17030C 17155.01970257 -.00003589 11346-4 00000-0 0 9999 2 42746 51.6300 104.1711 0113021 45.1229 50.6706 15.98153817 20

Satellite not in orbit

2017-030C